Lid_Strength_Index
5 4 3 3 3 2 2 3 2 2 1 1 4 4 5 2 0 -1 -1 -1 -1 -1 -1 -1 -1 -2 -1 -1 -1 -0 -0 0 -1 0 0 -0 -1 -1 -1 -1 -1 -1 -2
5 5 4 4 3 3 3 3 2 2 2 2 1 2 4 3 2 -0 -0 -1 -1 -1 -1 -1 -1 -1 -0 -1 -1 -0 0 0 -0 1 1 3 1 0 -0 -1 -1 -1 -1
6 5 5 4 4 4 4 3 3 3 2 1 2 1 0 1 1 1 0 -0 -1 -1 -1 -1 -1 -1 -1 -0 -0 -0 0 1 0 -0 1 3 4 2 0 0 -0 -1 -1
5 5 4 4 4 4 3 4 3 2 3 2 2 2 2 2 2 4 4 2 -0 -1 -0 -1 -1 -1 -1 -0 -0 -1 -0 0 1 0 0 -0 0 3 3 1 0 -0 -0
6 5 4 4 4 3 2 3 4 3 2 2 2 2 3 3 3 2 3 3 3 -1 -0 -0 -0 -0 -0 -1 -1 -0 -0 -0 1 1 1 1 1 1 2 3 2 1 -0
6 5 4 4 4 2 2 2 3 4 3 2 2 1 2 2 4 3 2 2 2 2 -0 -0 -0 -0 -0 -0 -0 -0 -0 -0 0 0 0 1 2 2 2 3 2 2 1
6 5 5 4 3 2 1 1 2 3 2 2 2 1 1 1 1 3 3 2 2 3 2 1 -0 -0 -0 -0 -0 0 0 -0 0 0 1 0 0 0 1 2 2 2 1
6 6 4 3 2 1 1 0 1 2 2 1 1 1 0 1 1 1 2 3 2 2 1 2 2 -0 -0 -1 -0 0 0 0 0 0 0 0 0 -0 0 1 2 3 2
6 5 3 2 1 1 1 0 1 2 1 1 1 1 0 0 1 1 1 2 2 2 2 2 1 1 -0 -0 0 0 1 0 0 0 0 0 0 -0 -0 0 0 2 4
5 4 2 1 1 1 1 0 0 1 1 1 1 2 1 0 0 0 1 2 1 2 2 2 1 1 2 0 0 0 0 1 0 0 0 0 0 0 -0 0 0 1 2
4 3 2 1 1 1 1 1 1 1 1 1 1 2 1 1 0 0 1 1 1 1 2 2 2 2 3 3 2 1 0 1 1 1 1 1 0 0 0 0 0 1 1
4 2 2 1 1 1 1 1 1 2 2 2 2 2 1 1 1 1 1 1 1 1 1 2 1 1 2 3 3 4 2 1 1 1 1 1 1 1 1 1 1 1 0
4 2 2 2 1 1 1 1 1 1 1 2 2 2 2 2 2 2 1 1 2 2 2 2 2 2 1 4 7 7 7 6 3 1 1 1 1 2 1 1 1 1 1
4 3 2 2 1 1 1 1 1 1 1 2 2 2 2 2 2 1 1 2 2 2 2 3 3 2 2 5 6 7 8 7 6 5 2 1 1 1 1 1 1 1 2
5 4 3 2 1 1 1 0 1 1 1 2 2 2 2 2 2 2 2 2 2 2 1 3 3 3 2 6 6 6 6 6 6 6 5 3 1 4 3 1 2 2 2
5 4 3 2 2 1 1 1 1 1 1 2 2 2 2 2 2 2 2 2 2 2 2 2 3 3 3 9 9 9 6 5 4 5 5 5 6 5 9 10 8 4 2
4 4 3 2 1 1 1 1 1 1 1 1 2 2 2 2 2 2 2 2 2 3 3 3 3 4 4 8 9 9 5 5 5 5 5 5 5 7 8 7 10 9 9
4 4 3 2 1 1 1 1 1 1 1 2 2 2 2 2 2 3 3 3 3 3 3 3 4 4 4 8 9 10 5 5 5 5 5 6 6 7 11 11 9 4 2
3 3 2 2 2 1 1 1 1 1 2 2 2 2 2 2 3 3 3 3 4 4 4 4 4 4 4 8 9 8 5 6 6 6 6 6 6 10 12 12 11 9 8
3 3 2 2 2 1 1 2 2 2 3 3 3 3 2 2 2 3 3 3 4 4 4 4 4 6 4 7 8 8 7 6 7 6 6 9 9 11 12 11 11 11 9
3 3 2 3 2 2 2 2 3 3 4 4 3 3 2 2 2 3 3 3 4 4 4 4 4 4 6 6 8 9 8 8 8 7 7 7 11 11 12 12 10 10 11
4 3 3 3 2 2 2 3 4 4 4 4 4 3 3 3 3 3 3 3 4 6 7 6 6 5 5 8 8 9 9 9 9 9 7 7 10 11 12 12 12 13 14
4 3 3 3 3 2 3 4 4 4 4 4 4 4 3 3 3 3 4 4 5 6 7 7 8 7 6 6 8 9 10 10 9 9 10 11 10 10 10 10 12 12 9
5 3 3 3 3 3 4 4 4 4 4 4 4 4 4 4 3 3 4 4 5 6 7 7 7 7 7 6 6 6 6 8 9 10 8 10 12 11 10 9 9 9 10
4 3 3 3 3 4 4 4 4 4 4 4 4 4 4 4 4 4 4 4 4 6 6 6 6 8 8 7 7 8 8 8 9 10 9 10 10 11 10 10 10 10 10
4 3 3 3 4 4 4 4 3 4 4 4 4 4 4 4 4 4 4 5 7 7 7 7 7 6 7 8 8 8 8 9 9 9 10 11 11 11 11 11 11 11 11